Time,TemperatureF,DewpointF,PressureIn,WindDirection,WindDirectionDegrees,WindSpeedMPH,WindSpeedGustMPH,Humidity,HourlyPrecipIn,Conditions,Clouds,dailyrainin,SoftwareType,DateUTC
2013-07-31 00:01:00,63.1,60.1,29.97,North,-999,-999.0,-999.0,87,-99.99,,,-99.99,Homeseer,2013-07-31 04:01:00,
2013-07-31 00:02:00,63.1,60.3,29.97,North,-999,-999.0,-999.0,88,-99.99,,,-99.99,Homeseer,2013-07-31 04:02:00,
2013-07-31 00:03:00,63.0,60.2,29.97,North,-999,-999.0,-999.0,88,-99.99,,,-99.99,Homeseer,2013-07-31 04:03:00,
2013-07-31 00:08:00,63.0,60.0,29.97,North,-999,-999.0,-999.0,87,-99.99,,,-99.99,Homeseer,2013-07-31 04:08:00,
2013-07-31 00:13:00,62.8,59.8,29.96,North,-999,-999.0,-999.0,87,-99.99,,,-99.99,Homeseer,2013-07-31 04:13:00,
2013-07-31 00:15:00,62.8,59.8,29.96,North,-999,-999.0,-999.0,87,-99.99,,,-99.99,Homeseer,2013-07-31 04:15:00,
2013-07-31 00:19:00,62.6,59.6,29.96,North,-999,-999.0,-999.0,87,-99.99,,,-99.99,Homeseer,2013-07-31 04:19:00,
2013-07-31 00:24:00,62.5,59.7,29.96,North,-999,-999.0,-999.0,88,-99.99,,,-99.99,Homeseer,2013-07-31 04:24:00,
2013-07-31 00:29:00,62.4,59.6,29.96,North,-999,-999.0,-999.0,88,-99.99,,,-99.99,Homeseer,2013-07-31 04:29:00,
2013-07-31 00:34:00,62.3,59.5,29.96,North,-999,-999.0,-999.0,88,-99.99,,,-99.99,Homeseer,2013-07-31 04:34:00,
2013-07-31 00:39:00,62.2,59.4,29.95,North,-999,-999.0,-999.0,88,-99.99,,,-99.99,Homeseer,2013-07-31 04:39:00,
2013-07-31 00:44:00,62.1,59.6,29.96,North,-999,-999.0,-999.0,89,-99.99,,,-99.99,Homeseer,2013-07-31 04:44:00,
2013-07-31 00:49:00,61.8,59.3,29.96,North,-999,-999.0,-999.0,89,-99.99,,,-99.99,Homeseer,2013-07-31 04:49:00,
2013-07-31 00:54:00,61.6,59.1,29.96,North,-999,-999.0,-999.0,89,-99.99,,,-99.99,Homeseer,2013-07-31 04:54:00,
2013-07-31 00:59:00,61.5,59.0,29.97,North,-999,-999.0,-999.0,89,-99.99,,,-99.99,Homeseer,2013-07-31 04:59:00,
2013-07-31 01:04:00,61.4,58.9,29.96,North,-999,-999.0,-999.0,89,-99.99,,,-99.99,Homeseer,2013-07-31 05:04:00,
2013-07-31 01:09:00,61.4,58.9,29.96,North,-999,-999.0,-999.0,89,-99.99,,,-99.99,Homeseer,2013-07-31 05:09:00,
2013-07-31 01:14:00,61.3,59.0,29.97,North,-999,-999.0,-999.0,90,-99.99,,,-99.99,Homeseer,2013-07-31 05:14:00,
2013-07-31 01:19:00,61.3,59.0,29.96,North,-999,-999.0,-999.0,90,-99.99,,,-99.99,Homeseer,2013-07-31 05:19:00,
2013-07-31 01:24:00,61.2,58.9,29.96,North,-999,-999.0,-999.0,90,-99.99,,,-99.99,Homeseer,2013-07-31 05:24:00,
2013-07-31 01:29:00,61.2,58.9,29.96,North,-999,-999.0,-999.0,90,-99.99,,,-99.99,Homeseer,2013-07-31 05:29:00,
2013-07-31 01:34:00,61.2,58.9,29.96,North,-999,-999.0,-999.0,90,-99.99,,,-99.99,Homeseer,2013-07-31 05:34:00,
2013-07-31 01:39:00,61.2,58.9,29.96,North,-999,-999.0,-999.0,90,-99.99,,,-99.99,Homeseer,2013-07-31 05:39:00,
2013-07-31 01:44:00,61.2,59.2,29.95,North,-999,-999.0,-999.0,91,-99.99,,,-99.99,Homeseer,2013-07-31 05:44:00,
2013-07-31 01:49:00,61.1,59.1,29.95,North,-999,-999.0,-999.0,91,-99.99,,,-99.99,Homeseer,2013-07-31 05:49:00,
2013-07-31 01:54:00,61.0,58.5,29.95,North,-999,-999.0,-999.0,89,-99.99,,,-99.99,Homeseer,2013-07-31 05:54:00,
2013-07-31 01:59:00,61.0,59.0,29.95,North,-999,-999.0,-999.0,91,-99.99,,,-99.99,Homeseer,2013-07-31 05:59:00,
2013-07-31 02:04:00,61.0,59.0,29.95,North,-999,-999.0,-999.0,91,-99.99,,,-99.99,Homeseer,2013-07-31 06:04:00,
2013-07-31 02:09:00,60.8,58.8,29.95,North,-999,-999.0,-999.0,91,-99.99,,,-99.99,Homeseer,2013-07-31 06:09:00,
2013-07-31 02:14:00,60.7,58.4,29.95,North,-999,-999.0,-999.0,90,-99.99,,,-99.99,Homeseer,2013-07-31 06:14:00,
2013-07-31 02:19:00,60.7,58.7,29.96,North,-999,-999.0,-999.0,91,-99.99,,,-99.99,Homeseer,2013-07-31 06:19:00,
2013-07-31 02:24:00,60.7,58.7,29.96,North,-999,-999.0,-999.0,91,-99.99,,,-99.99,Homeseer,2013-07-31 06:24:00,
2013-07-31 02:29:00,60.6,58.6,29.95,North,-999,-999.0,-999.0,91,-99.99,,,-99.99,Homeseer,2013-07-31 06:29:00,
2013-07-31 02:34:00,60.5,58.7,29.96,North,-999,-999.0,-999.0,92,-99.99,,,-99.99,Homeseer,2013-07-31 06:34:00,
2013-07-31 02:39:00,60.5,58.7,29.95,North,-999,-999.0,-999.0,92,-99.99,,,-99.99,Homeseer,2013-07-31 06:39:00,
2013-07-31 02:44:00,60.4,58.6,29.95,North,-999,-999.0,-999.0,92,-99.99,,,-99.99,Homeseer,2013-07-31 06:44:00,
2013-07-31 02:49:00,60.3,58.5,29.95,North,-999,-999.0,-999.0,92,-99.99,,,-99.99,Homeseer,2013-07-31 06:49:00,
2013-07-31 02:54:00,60.2,58.4,29.96,North,-999,-999.0,-999.0,92,-99.99,,,-99.99,Homeseer,2013-07-31 06:54:00,
2013-07-31 02:59:00,60.2,58.4,29.96,North,-999,-999.0,-999.0,92,-99.99,,,-99.99,Homeseer,2013-07-31 06:59:00,
2013-07-31 03:04:00,59.9,58.4,29.96,North,-999,-999.0,-999.0,93,-99.99,,,-99.99,Homeseer,2013-07-31 07:04:00,
2013-07-31 03:09:00,59.8,58.0,29.96,North,-999,-999.0,-999.0,92,-99.99,,,-99.99,Homeseer,2013-07-31 07:09:00,
2013-07-31 03:14:00,59.8,57.8,29.95,North,-999,-999.0,-999.0,91,-99.99,,,-99.99,Homeseer,2013-07-31 07:14:00,
2013-07-31 03:19:00,59.7,57.9,29.95,North,-999,-999.0,-999.0,92,-99.99,,,-99.99,Homeseer,2013-07-31 07:19:00,
2013-07-31 03:24:00,59.6,58.3,29.96,North,-999,-999.0,-999.0,94,-99.99,,,-99.99,Homeseer,2013-07-31 07:24:00,
2013-07-31 03:29:00,59.6,58.1,29.96,North,-999,-999.0,-999.0,93,-99.99,,,-99.99,Homeseer,2013-07-31 07:29:00,
2013-07-31 03:34:00,59.6,58.1,29.96,North,-999,-999.0,-999.0,93,-99.99,,,-99.99,Homeseer,2013-07-31 07:34:00,
2013-07-31 03:39:00,59.7,58.2,29.96,North,-999,-999.0,-999.0,93,-99.99,,,-99.99,Homeseer,2013-07-31 07:39:00,
2013-07-31 03:44:00,59.6,58.1,29.96,North,-999,-999.0,-999.0,93,-99.99,,,-99.99,Homeseer,2013-07-31 07:44:00,
2013-07-31 03:49:00,59.6,58.1,29.97,North,-999,-999.0,-999.0,93,-99.99,,,-99.99,Homeseer,2013-07-31 07:49:00,
2013-07-31 03:54:00,59.6,58.1,29.97,North,-999,-999.0,-999.0,93,-99.99,,,-99.99,Homeseer,2013-07-31 07:54:00,
2013-07-31 03:59:00,59.4,57.9,29.97,North,-999,-999.0,-999.0,93,-99.99,,,-99.99,Homeseer,2013-07-31 07:59:00,
2013-07-31 04:04:00,59.4,58.1,29.97,North,-999,-999.0,-999.0,94,-99.99,,,-99.99,Homeseer,2013-07-31 08:04:00,
2013-07-31 04:09:00,59.3,58.0,29.97,North,-999,-999.0,-999.0,94,-99.99,,,-99.99,Homeseer,2013-07-31 08:09:00,
2013-07-31 04:14:00,59.3,58.0,29.97,North,-999,-999.0,-999.0,94,-99.99,,,-99.99,Homeseer,2013-07-31 08:14:00,
2013-07-31 04:19:00,59.3,58.0,29.97,North,-999,-999.0,-999.0,94,-99.99,,,-99.99,Homeseer,2013-07-31 08:19:00,
2013-07-31 04:24:00,59.4,58.1,29.97,North,-999,-999.0,-999.0,94,-99.99,,,-99.99,Homeseer,2013-07-31 08:24:00,
2013-07-31 04:29:00,59.4,58.1,29.97,North,-999,-999.0,-999.0,94,-99.99,,,-99.99,Homeseer,2013-07-31 08:29:00,
2013-07-31 04:34:00,59.4,58.1,29.98,North,-999,-999.0,-999.0,94,-99.99,,,-99.99,Homeseer,2013-07-31 08:34:00,
2013-07-31 04:39:00,59.4,58.1,29.98,North,-999,-999.0,-999.0,94,-99.99,,,-99.99,Homeseer,2013-07-31 08:39:00,
2013-07-31 04:44:00,59.4,58.3,29.98,North,-999,-999.0,-999.0,95,-99.99,,,-99.99,Homeseer,2013-07-31 08:44:00,
2013-07-31 04:49:00,59.4,58.1,29.98,North,-999,-999.0,-999.0,94,-99.99,,,-99.99,Homeseer,2013-07-31 08:49:00,
2013-07-31 04:54:00,59.3,58.2,29.98,North,-999,-999.0,-999.0,95,-99.99,,,-99.99,Homeseer,2013-07-31 08:54:00,
2013-07-31 04:59:00,59.3,58.2,29.99,North,-999,-999.0,-999.0,95,-99.99,,,-99.99,Homeseer,2013-07-31 08:59:00,
2013-07-31 05:04:00,59.2,58.1,29.98,North,-999,-999.0,-999.0,95,-99.99,,,-99.99,Homeseer,2013-07-31 09:04:00,
2013-07-31 05:09:00,59.0,57.7,29.99,North,-999,-999.0,-999.0,94,-99.99,,,-99.99,Homeseer,2013-07-31 09:09:00,
2013-07-31 05:14:00,58.8,57.7,29.99,North,-999,-999.0,-999.0,95,-99.99,,,-99.99,Homeseer,2013-07-31 09:14:00,
2013-07-31 05:19:00,58.7,57.4,29.99,North,-999,-999.0,-999.0,94,-99.99,,,-99.99,Homeseer,2013-07-31 09:19:00,
2013-07-31 05:24:00,58.5,57.4,29.99,North,-999,-999.0,-999.0,95,-99.99,,,-99.99,Homeseer,2013-07-31 09:24:00,
2013-07-31 05:29:00,58.5,57.4,29.99,North,-999,-999.0,-999.0,95,-99.99,,,-99.99,Homeseer,2013-07-31 09:29:00,
2013-07-31 05:34:00,58.4,57.3,30.00,North,-999,-999.0,-999.0,95,-99.99,,,-99.99,Homeseer,2013-07-31 09:34:00,
2013-07-31 05:39:00,58.4,57.3,30.00,North,-999,-999.0,-999.0,95,-99.99,,,-99.99,Homeseer,2013-07-31 09:39:00,
2013-07-31 05:44:00,58.4,57.3,30.01,North,-999,-999.0,-999.0,95,-99.99,,,-99.99,Homeseer,2013-07-31 09:44:00,
2013-07-31 05:49:00,58.4,57.3,30.01,North,-999,-999.0,-999.0,95,-99.99,,,-99.99,Homeseer,2013-07-31 09:49:00,
2013-07-31 05:54:00,58.4,57.3,30.01,North,-999,-999.0,-999.0,95,-99.99,,,-99.99,Homeseer,2013-07-31 09:54:00,
2013-07-31 05:59:00,58.4,57.3,30.02,North,-999,-999.0,-999.0,95,-99.99,,,-99.99,Homeseer,2013-07-31 09:59:00,
2013-07-31 06:04:00,58.4,57.1,30.02,North,-999,-999.0,-999.0,94,-99.99,,,-99.99,Homeseer,2013-07-31 10:04:00,
2013-07-31 06:09:00,58.4,57.1,30.02,North,-999,-999.0,-999.0,94,-99.99,,,-99.99,Homeseer,2013-07-31 10:09:00,
2013-07-31 06:14:00,58.5,57.4,30.02,North,-999,-999.0,-999.0,95,-99.99,,,-99.99,Homeseer,2013-07-31 10:14:00,
2013-07-31 06:19:00,58.5,57.2,30.02,North,-999,-999.0,-999.0,94,-99.99,,,-99.99,Homeseer,2013-07-31 10:19:00,
2013-07-31 06:24:00,58.5,57.4,30.02,North,-999,-999.0,-999.0,95,-99.99,,,-99.99,Homeseer,2013-07-31 10:24:00,
2013-07-31 06:29:00,58.5,57.6,30.02,North,-999,-999.0,-999.0,96,-99.99,,,-99.99,Homeseer,2013-07-31 10:29:00,
2013-07-31 06:34:00,58.6,57.5,30.03,North,-999,-999.0,-999.0,95,-99.99,,,-99.99,Homeseer,2013-07-31 10:34:00,
2013-07-31 06:39:00,58.6,57.7,30.03,North,-999,-999.0,-999.0,96,-99.99,,,-99.99,Homeseer,2013-07-31 10:39:00,
2013-07-31 06:44:00,58.7,57.8,30.03,North,-999,-999.0,-999.0,96,-99.99,,,-99.99,Homeseer,2013-07-31 10:44:00,
2013-07-31 06:49:00,58.8,57.9,30.04,North,-999,-999.0,-999.0,96,-99.99,,,-99.99,Homeseer,2013-07-31 10:49:00,
2013-07-31 06:54:00,59.0,57.9,30.03,North,-999,-999.0,-999.0,95,-99.99,,,-99.99,Homeseer,2013-07-31 10:54:00,
2013-07-31 06:59:00,59.2,58.3,30.04,North,-999,-999.0,-999.0,96,-99.99,,,-99.99,Homeseer,2013-07-31 10:59:00,
2013-07-31 07:04:00,59.4,58.5,30.05,North,-999,-999.0,-999.0,96,-99.99,,,-99.99,Homeseer,2013-07-31 11:04:00,
2013-07-31 07:09:00,59.7,58.8,30.05,North,-999,-999.0,-999.0,96,-99.99,,,-99.99,Homeseer,2013-07-31 11:09:00,
2013-07-31 07:14:00,59.8,59.1,30.05,North,-999,-999.0,-999.0,97,-99.99,,,-99.99,Homeseer,2013-07-31 11:14:00,
2013-07-31 07:19:00,60.2,59.5,30.05,North,-999,-999.0,-999.0,97,-99.99,,,-99.99,Homeseer,2013-07-31 11:19:00,
2013-07-31 07:24:00,60.5,59.8,30.05,North,-999,-999.0,-999.0,97,-99.99,,,-99.99,Homeseer,2013-07-31 11:24:00,
2013-07-31 07:29:00,60.8,59.9,30.05,North,-999,-999.0,-999.0,96,-99.99,,,-99.99,Homeseer,2013-07-31 11:29:00,
2013-07-31 07:34:00,61.2,60.3,30.05,North,-999,-999.0,-999.0,96,-99.99,,,-99.99,Homeseer,2013-07-31 11:34:00,
2013-07-31 07:40:00,61.6,60.7,30.05,North,-999,-999.0,-999.0,96,-99.99,,,-99.99,Homeseer,2013-07-31 11:40:00,
2013-07-31 07:45:00,61.8,60.9,30.05,North,-999,-999.0,-999.0,96,-99.99,,,-99.99,Homeseer,2013-07-31 11:45:00,
2013-07-31 07:50:00,62.2,61.3,30.04,North,-999,-999.0,-999.0,96,-99.99,,,-99.99,Homeseer,2013-07-31 11:50:00,
2013-07-31 07:55:00,62.5,61.6,30.04,North,-999,-999.0,-999.0,96,-99.99,,,-99.99,Homeseer,2013-07-31 11:55:00,
2013-07-31 08:00:00,63.0,61.9,30.04,North,-999,-999.0,-999.0,95,-99.99,,,-99.99,Homeseer,2013-07-31 12:00:00,
2013-07-31 08:05:00,63.3,62.2,30.04,North,-999,-999.0,-999.0,95,-99.99,,,-99.99,Homeseer,2013-07-31 12:05:00,
2013-07-31 08:10:00,64.0,62.6,30.04,North,-999,-999.0,-999.0,94,-99.99,,,-99.99,Homeseer,2013-07-31 12:10:00,
2013-07-31 08:15:00,65.0,62.9,30.04,North,-999,-999.0,-999.0,91,-99.99,,,-99.99,Homeseer,2013-07-31 12:15:00,
2013-07-31 08:20:00,66.6,64.3,30.04,North,-999,-999.0,-999.0,90,-99.99,,,-99.99,Homeseer,2013-07-31 12:20:00,
2013-07-31 08:25:00,68.4,65.0,30.04,North,-999,-999.0,-999.0,86,-99.99,,,-99.99,Homeseer,2013-07-31 12:25:00,
2013-07-31 08:30:00,69.8,66.1,30.04,North,-999,-999.0,-999.0,85,-99.99,,,-99.99,Homeseer,2013-07-31 12:30:00,
2013-07-31 08:36:00,71.1,66.3,30.04,North,-999,-999.0,-999.0,81,-99.99,,,-99.99,Homeseer,2013-07-31 12:36:00,
2013-07-31 08:41:00,71.8,65.6,30.04,North,-999,-999.0,-999.0,76,-99.99,,,-99.99,Homeseer,2013-07-31 12:41:00,
2013-07-31 08:47:00,72.5,65.9,30.04,North,-999,-999.0,-999.0,75,-99.99,,,-99.99,Homeseer,2013-07-31 12:47:00,
2013-07-31 08:52:00,73.6,66.4,30.05,North,-999,-999.0,-999.0,73,-99.99,,,-99.99,Homeseer,2013-07-31 12:52:00,
2013-07-31 08:57:00,74.2,66.7,30.04,North,-999,-999.0,-999.0,72,-99.99,,,-99.99,Homeseer,2013-07-31 12:57:00,
2013-07-31 09:03:00,74.4,65.2,30.04,North,-999,-999.0,-999.0,67,-99.99,,,-99.99,Homeseer,2013-07-31 13:03:00,
2013-07-31 09:08:00,74.8,64.6,30.04,North,-999,-999.0,-999.0,64,-99.99,,,-99.99,Homeseer,2013-07-31 13:08:00,
2013-07-31 09:13:00,75.5,64.9,30.03,North,-999,-999.0,-999.0,63,-99.99,,,-99.99,Homeseer,2013-07-31 13:13:00,
2013-07-31 09:18:00,75.8,65.2,30.04,North,-999,-999.0,-999.0,63,-99.99,,,-99.99,Homeseer,2013-07-31 13:18:00,
2013-07-31 09:23:00,75.6,63.9,30.04,North,-999,-999.0,-999.0,60,-99.99,,,-99.99,Homeseer,2013-07-31 13:23:00,
2013-07-31 09:28:00,75.6,64.3,30.04,North,-999,-999.0,-999.0,61,-99.99,,,-99.99,Homeseer,2013-07-31 13:28:00,
2013-07-31 09:33:00,75.7,64.0,30.04,North,-999,-999.0,-999.0,60,-99.99,,,-99.99,Homeseer,2013-07-31 13:33:00,
2013-07-31 09:38:00,75.5,64.2,30.04,North,-999,-999.0,-999.0,61,-99.99,,,-99.99,Homeseer,2013-07-31 13:38:00,
2013-07-31 09:43:00,75.0,64.1,30.03,North,-999,-999.0,-999.0,62,-99.99,,,-99.99,Homeseer,2013-07-31 13:43:00,
2013-07-31 09:48:00,75.1,62.3,30.03,North,-999,-999.0,-999.0,57,-99.99,,,-99.99,Homeseer,2013-07-31 13:48:00,
2013-07-31 09:53:00,75.2,62.4,30.03,North,-999,-999.0,-999.0,57,-99.99,,,-99.99,Homeseer,2013-07-31 13:53:00,
2013-07-31 09:58:00,75.2,63.2,30.03,North,-999,-999.0,-999.0,59,-99.99,,,-99.99,Homeseer,2013-07-31 13:58:00,
2013-07-31 10:03:00,76.0,64.7,30.03,North,-999,-999.0,-999.0,61,-99.99,,,-99.99,Homeseer,2013-07-31 14:03:00,
2013-07-31 10:08:00,76.1,64.0,30.03,North,-999,-999.0,-999.0,59,-99.99,,,-99.99,Homeseer,2013-07-31 14:08:00,
2013-07-31 10:13:00,76.5,62.0,30.02,North,-999,-999.0,-999.0,53,-99.99,,,-99.99,Homeseer,2013-07-31 14:13:00,
2013-07-31 10:18:00,76.4,63.5,30.02,North,-999,-999.0,-999.0,57,-99.99,,,-99.99,Homeseer,2013-07-31 14:18:00,
2013-07-31 10:23:00,76.6,63.3,30.03,North,-999,-999.0,-999.0,56,-99.99,,,-99.99,Homeseer,2013-07-31 14:23:00,
2013-07-31 10:28:00,76.6,63.7,30.02,North,-999,-999.0,-999.0,57,-99.99,,,-99.99,Homeseer,2013-07-31 14:28:00,
2013-07-31 10:33:00,76.5,64.4,30.02,North,-999,-999.0,-999.0,59,-99.99,,,-99.99,Homeseer,2013-07-31 14:33:00,
2013-07-31 10:38:00,76.9,64.4,30.01,North,-999,-999.0,-999.0,58,-99.99,,,-99.99,Homeseer,2013-07-31 14:38:00,
2013-07-31 10:43:00,77.4,64.5,30.01,North,-999,-999.0,-999.0,57,-99.99,,,-99.99,Homeseer,2013-07-31 14:43:00,
2013-07-31 10:48:00,77.4,63.3,30.01,North,-999,-999.0,-999.0,54,-99.99,,,-99.99,Homeseer,2013-07-31 14:48:00,
2013-07-31 10:53:00,77.0,61.7,30.01,North,-999,-999.0,-999.0,51,-99.99,,,-99.99,Homeseer,2013-07-31 14:53:00,
2013-07-31 10:58:00,77.4,61.6,30.01,North,-999,-999.0,-999.0,50,-99.99,,,-99.99,Homeseer,2013-07-31 14:58:00,
2013-07-31 11:03:00,77.8,63.2,30.01,North,-999,-999.0,-999.0,53,-99.99,,,-99.99,Homeseer,2013-07-31 15:03:00,
2013-07-31 11:08:00,78.4,64.2,30.01,North,-999,-999.0,-999.0,54,-99.99,,,-99.99,Homeseer,2013-07-31 15:08:00,
2013-07-31 11:13:00,79.1,64.4,30.00,North,-999,-999.0,-999.0,53,-99.99,,,-99.99,Homeseer,2013-07-31 15:13:00,
2013-07-31 11:18:00,79.2,62.8,30.00,North,-999,-999.0,-999.0,49,-99.99,,,-99.99,Homeseer,2013-07-31 15:18:00,
2013-07-31 11:23:00,79.5,63.5,30.00,North,-999,-999.0,-999.0,50,-99.99,,,-99.99,Homeseer,2013-07-31 15:23:00,
2013-07-31 11:28:00,79.2,63.7,30.00,North,-999,-999.0,-999.0,51,-99.99,,,-99.99,Homeseer,2013-07-31 15:28:00,
2013-07-31 11:33:00,79.6,63.6,30.01,North,-999,-999.0,-999.0,50,-99.99,,,-99.99,Homeseer,2013-07-31 15:33:00,
2013-07-31 11:38:00,80.3,65.1,30.00,North,-999,-999.0,-999.0,52,-99.99,,,-99.99,Homeseer,2013-07-31 15:38:00,
2013-07-31 11:43:00,80.3,63.3,30.00,North,-999,-999.0,-999.0,48,-99.99,,,-99.99,Homeseer,2013-07-31 15:43:00,
2013-07-31 11:48:00,80.2,64.1,30.00,North,-999,-999.0,-999.0,50,-99.99,,,-99.99,Homeseer,2013-07-31 15:48:00,
2013-07-31 11:53:00,81.2,64.6,29.99,North,-999,-999.0,-999.0,49,-99.99,,,-99.99,Homeseer,2013-07-31 15:53:00,
2013-07-31 11:58:00,81.2,64.6,29.99,North,-999,-999.0,-999.0,49,-99.99,,,-99.99,Homeseer,2013-07-31 15:58:00,
2013-07-31 12:03:00,81.5,62.5,29.99,North,-999,-999.0,-999.0,44,-99.99,,,-99.99,Homeseer,2013-07-31 16:03:00,
2013-07-31 12:08:00,81.4,66.9,29.99,North,-999,-999.0,-999.0,54,-99.99,,,-99.99,Homeseer,2013-07-31 16:08:00,
2013-07-31 12:13:00,81.1,65.4,29.98,North,-999,-999.0,-999.0,51,-99.99,,,-99.99,Homeseer,2013-07-31 16:13:00,
2013-07-31 12:18:00,81.9,62.8,29.99,North,-999,-999.0,-999.0,44,-99.99,,,-99.99,Homeseer,2013-07-31 16:18:00,
2013-07-31 12:23:00,81.6,64.5,29.98,North,-999,-999.0,-999.0,48,-99.99,,,-99.99,Homeseer,2013-07-31 16:23:00,
2013-07-31 12:28:00,81.5,63.5,29.99,North,-999,-999.0,-999.0,46,-99.99,,,-99.99,Homeseer,2013-07-31 16:28:00,
2013-07-31 12:33:00,81.3,66.8,29.98,North,-999,-999.0,-999.0,54,-99.99,,,-99.99,Homeseer,2013-07-31 16:33:00,
2013-07-31 12:38:00,81.3,63.3,29.98,North,-999,-999.0,-999.0,46,-99.99,,,-99.99,Homeseer,2013-07-31 16:38:00,
2013-07-31 12:43:00,81.2,63.2,29.98,North,-999,-999.0,-999.0,46,-99.99,,,-99.99,Homeseer,2013-07-31 16:43:00,
2013-07-31 12:48:00,81.1,63.6,29.98,North,-999,-999.0,-999.0,47,-99.99,,,-99.99,Homeseer,2013-07-31 16:48:00,
2013-07-31 12:53:00,81.1,63.6,29.98,North,-999,-999.0,-999.0,47,-99.99,,,-99.99,Homeseer,2013-07-31 16:53:00,
2013-07-31 12:58:00,81.3,63.8,29.97,North,-999,-999.0,-999.0,47,-99.99,,,-99.99,Homeseer,2013-07-31 16:58:00,
2013-07-31 13:03:00,81.5,63.5,29.98,North,-999,-999.0,-999.0,46,-99.99,,,-99.99,Homeseer,2013-07-31 17:03:00,
2013-07-31 13:08:00,82.2,65.9,29.97,North,-999,-999.0,-999.0,50,-99.99,,,-99.99,Homeseer,2013-07-31 17:08:00,
2013-07-31 13:13:00,82.6,65.8,29.97,North,-999,-999.0,-999.0,49,-99.99,,,-99.99,Homeseer,2013-07-31 17:13:00,
2013-07-31 13:18:00,82.1,64.0,29.97,North,-999,-999.0,-999.0,46,-99.99,,,-99.99,Homeseer,2013-07-31 17:18:00,
2013-07-31 13:23:00,81.8,63.7,29.97,North,-999,-999.0,-999.0,46,-99.99,,,-99.99,Homeseer,2013-07-31 17:23:00,
2013-07-31 13:28:00,81.5,66.2,29.96,North,-999,-999.0,-999.0,52,-99.99,,,-99.99,Homeseer,2013-07-31 17:28:00,
2013-07-31 13:33:00,81.3,63.3,29.97,North,-999,-999.0,-999.0,46,-99.99,,,-99.99,Homeseer,2013-07-31 17:33:00,
2013-07-31 13:38:00,81.2,64.6,29.96,North,-999,-999.0,-999.0,49,-99.99,,,-99.99,Homeseer,2013-07-31 17:38:00,
2013-07-31 13:43:00,80.9,64.8,29.96,North,-999,-999.0,-999.0,50,-99.99,,,-99.99,Homeseer,2013-07-31 17:43:00,
2013-07-31 13:48:00,80.9,64.3,29.96,North,-999,-999.0,-999.0,49,-99.99,,,-99.99,Homeseer,2013-07-31 17:48:00,
2013-07-31 13:53:00,80.5,64.8,29.96,North,-999,-999.0,-999.0,51,-99.99,,,-99.99,Homeseer,2013-07-31 17:53:00,
2013-07-31 13:58:00,81.0,63.9,29.96,North,-999,-999.0,-999.0,48,-99.99,,,-99.99,Homeseer,2013-07-31 17:58:00,
2013-07-31 14:03:00,81.0,64.4,29.96,North,-999,-999.0,-999.0,49,-99.99,,,-99.99,Homeseer,2013-07-31 18:03:00,
2013-07-31 14:08:00,80.1,65.7,29.96,North,-999,-999.0,-999.0,54,-99.99,,,-99.99,Homeseer,2013-07-31 18:08:00,
2013-07-31 14:13:00,79.0,65.9,29.95,North,-999,-999.0,-999.0,57,-99.99,,,-99.99,Homeseer,2013-07-31 18:13:00,
2013-07-31 14:18:00,79.0,64.7,29.95,North,-999,-999.0,-999.0,54,-99.99,,,-99.99,Homeseer,2013-07-31 18:18:00,
2013-07-31 14:23:00,79.1,63.6,29.95,North,-999,-999.0,-999.0,51,-99.99,,,-99.99,Homeseer,2013-07-31 18:23:00,
2013-07-31 14:28:00,79.1,63.1,29.95,North,-999,-999.0,-999.0,50,-99.99,,,-99.99,Homeseer,2013-07-31 18:28:00,
2013-07-31 14:33:00,79.0,63.9,29.95,North,-999,-999.0,-999.0,52,-99.99,,,-99.99,Homeseer,2013-07-31 18:33:00,
2013-07-31 14:38:00,79.1,65.2,29.95,North,-999,-999.0,-999.0,55,-99.99,,,-99.99,Homeseer,2013-07-31 18:38:00,
2013-07-31 14:43:00,79.4,64.7,29.95,North,-999,-999.0,-999.0,53,-99.99,,,-99.99,Homeseer,2013-07-31 18:43:00,
2013-07-31 14:48:00,80.1,64.0,29.95,North,-999,-999.0,-999.0,50,-99.99,,,-99.99,Homeseer,2013-07-31 18:48:00,
2013-07-31 14:53:00,80.4,65.2,29.95,North,-999,-999.0,-999.0,52,-99.99,,,-99.99,Homeseer,2013-07-31 18:53:00,
2013-07-31 14:58:00,80.0,65.6,29.94,North,-999,-999.0,-999.0,54,-99.99,,,-99.99,Homeseer,2013-07-31 18:58:00,
2013-07-31 15:03:00,79.6,62.7,29.94,North,-999,-999.0,-999.0,48,-99.99,,,-99.99,Homeseer,2013-07-31 19:03:00,
2013-07-31 15:08:00,80.3,67.9,29.94,North,-999,-999.0,-999.0,59,-99.99,,,-99.99,Homeseer,2013-07-31 19:08:00,
2013-07-31 15:13:00,81.0,67.0,29.94,North,-999,-999.0,-999.0,55,-99.99,,,-99.99,Homeseer,2013-07-31 19:13:00,
2013-07-31 15:18:00,81.6,64.9,29.94,North,-999,-999.0,-999.0,49,-99.99,,,-99.99,Homeseer,2013-07-31 19:18:00,
2013-07-31 15:23:00,81.9,69.0,29.93,North,-999,-999.0,-999.0,58,-99.99,,,-99.99,Homeseer,2013-07-31 19:23:00,
2013-07-31 15:28:00,82.2,65.0,29.93,North,-999,-999.0,-999.0,48,-99.99,,,-99.99,Homeseer,2013-07-31 19:28:00,
2013-07-31 15:33:00,82.7,66.8,29.94,North,-999,-999.0,-999.0,51,-99.99,,,-99.99,Homeseer,2013-07-31 19:33:00,
2013-07-31 15:38:00,82.7,65.9,29.94,North,-999,-999.0,-999.0,49,-99.99,,,-99.99,Homeseer,2013-07-31 19:38:00,
2013-07-31 15:43:00,82.8,66.0,29.93,North,-999,-999.0,-999.0,49,-99.99,,,-99.99,Homeseer,2013-07-31 19:43:00,
2013-07-31 15:48:00,82.3,65.1,29.93,North,-999,-999.0,-999.0,48,-99.99,,,-99.99,Homeseer,2013-07-31 19:48:00,
2013-07-31 15:53:00,81.3,65.6,29.93,North,-999,-999.0,-999.0,51,-99.99,,,-99.99,Homeseer,2013-07-31 19:53:00,
2013-07-31 15:58:00,80.0,66.9,29.93,North,-999,-999.0,-999.0,57,-99.99,,,-99.99,Homeseer,2013-07-31 19:58:00,
2013-07-31 16:03:00,79.1,65.6,29.92,North,-999,-999.0,-999.0,56,-99.99,,,-99.99,Homeseer,2013-07-31 20:03:00,
2013-07-31 16:08:00,79.0,67.1,29.92,North,-999,-999.0,-999.0,60,-99.99,,,-99.99,Homeseer,2013-07-31 20:08:00,
2013-07-31 16:13:00,79.2,66.5,29.92,North,-999,-999.0,-999.0,58,-99.99,,,-99.99,Homeseer,2013-07-31 20:13:00,
2013-07-31 16:18:00,79.4,66.7,29.92,North,-999,-999.0,-999.0,58,-99.99,,,-99.99,Homeseer,2013-07-31 20:18:00,
2013-07-31 16:23:00,79.5,65.6,29.91,North,-999,-999.0,-999.0,55,-99.99,,,-99.99,Homeseer,2013-07-31 20:23:00,
2013-07-31 16:28:00,79.4,64.3,29.91,North,-999,-999.0,-999.0,52,-99.99,,,-99.99,Homeseer,2013-07-31 20:28:00,
2013-07-31 16:33:00,79.5,66.0,29.91,North,-999,-999.0,-999.0,56,-99.99,,,-99.99,Homeseer,2013-07-31 20:33:00,
2013-07-31 16:38:00,79.5,67.9,29.92,North,-999,-999.0,-999.0,61,-99.99,,,-99.99,Homeseer,2013-07-31 20:38:00,
2013-07-31 16:43:00,79.2,68.0,29.92,North,-999,-999.0,-999.0,62,-99.99,,,-99.99,Homeseer,2013-07-31 20:43:00,
2013-07-31 16:48:00,78.8,67.3,29.92,North,-999,-999.0,-999.0,61,-99.99,,,-99.99,Homeseer,2013-07-31 20:48:00,
2013-07-31 16:53:00,78.3,67.5,29.92,North,-999,-999.0,-999.0,63,-99.99,,,-99.99,Homeseer,2013-07-31 20:53:00,
2013-07-31 16:58:00,78.0,67.3,29.92,North,-999,-999.0,-999.0,63,-99.99,,,-99.99,Homeseer,2013-07-31 20:58:00,
2013-07-31 17:03:00,77.7,68.4,29.92,North,-999,-999.0,-999.0,67,-99.99,,,-99.99,Homeseer,2013-07-31 21:03:00,
2013-07-31 17:08:00,77.5,68.2,29.91,North,-999,-999.0,-999.0,67,-99.99,,,-99.99,Homeseer,2013-07-31 21:08:00,
2013-07-31 17:13:00,77.3,68.0,29.91,North,-999,-999.0,-999.0,67,-99.99,,,-99.99,Homeseer,2013-07-31 21:13:00,
2013-07-31 17:18:00,77.0,68.4,29.91,North,-999,-999.0,-999.0,69,-99.99,,,-99.99,Homeseer,2013-07-31 21:18:00,
2013-07-31 17:23:00,77.0,68.4,29.91,North,-999,-999.0,-999.0,69,-99.99,,,-99.99,Homeseer,2013-07-31 21:23:00,
2013-07-31 17:28:00,76.8,68.8,29.91,North,-999,-999.0,-999.0,71,-99.99,,,-99.99,Homeseer,2013-07-31 21:28:00,
2013-07-31 17:33:00,77.0,68.7,29.91,North,-999,-999.0,-999.0,70,-99.99,,,-99.99,Homeseer,2013-07-31 21:33:00,
2013-07-31 17:38:00,76.9,68.9,29.91,North,-999,-999.0,-999.0,71,-99.99,,,-99.99,Homeseer,2013-07-31 21:38:00,
2013-07-31 17:43:00,76.8,68.5,29.91,North,-999,-999.0,-999.0,70,-99.99,,,-99.99,Homeseer,2013-07-31 21:43:00,
2013-07-31 17:48:00,76.5,68.9,29.91,North,-999,-999.0,-999.0,72,-99.99,,,-99.99,Homeseer,2013-07-31 21:48:00,
2013-07-31 17:53:00,76.1,68.2,29.91,North,-999,-999.0,-999.0,71,-99.99,,,-99.99,Homeseer,2013-07-31 21:53:00,
2013-07-31 17:58:00,76.2,68.9,29.90,North,-999,-999.0,-999.0,73,-99.99,,,-99.99,Homeseer,2013-07-31 21:58:00,
2013-07-31 18:03:00,75.9,68.6,29.91,North,-999,-999.0,-999.0,73,-99.99,,,-99.99,Homeseer,2013-07-31 22:03:00,
2013-07-31 18:08:00,75.5,68.8,29.91,North,-999,-999.0,-999.0,75,-99.99,,,-99.99,Homeseer,2013-07-31 22:08:00,
2013-07-31 18:13:00,75.2,68.5,29.91,North,-999,-999.0,-999.0,75,-99.99,,,-99.99,Homeseer,2013-07-31 22:13:00,
2013-07-31 18:18:00,75.0,68.6,29.91,North,-999,-999.0,-999.0,76,-99.99,,,-99.99,Homeseer,2013-07-31 22:18:00,
2013-07-31 18:23:00,74.7,68.4,29.91,North,-999,-999.0,-999.0,76,-99.99,,,-99.99,Homeseer,2013-07-31 22:23:00,
2013-07-31 18:28:00,74.4,68.4,29.91,North,-999,-999.0,-999.0,77,-99.99,,,-99.99,Homeseer,2013-07-31 22:28:00,
2013-07-31 18:33:00,74.2,67.6,29.91,North,-999,-999.0,-999.0,75,-99.99,,,-99.99,Homeseer,2013-07-31 22:33:00,
2013-07-31 18:38:00,74.1,68.1,29.91,North,-999,-999.0,-999.0,77,-99.99,,,-99.99,Homeseer,2013-07-31 22:38:00,
2013-07-31 18:43:00,73.8,67.8,29.90,North,-999,-999.0,-999.0,77,-99.99,,,-99.99,Homeseer,2013-07-31 22:43:00,
2013-07-31 18:48:00,73.4,67.1,29.90,North,-999,-999.0,-999.0,76,-99.99,,,-99.99,Homeseer,2013-07-31 22:48:00,
2013-07-31 18:53:00,73.1,66.5,29.90,North,-999,-999.0,-999.0,75,-99.99,,,-99.99,Homeseer,2013-07-31 22:53:00,
2013-07-31 18:58:00,72.6,66.0,29.90,North,-999,-999.0,-999.0,75,-99.99,,,-99.99,Homeseer,2013-07-31 22:58:00,
2013-07-31 19:03:00,72.3,65.8,29.90,North,-999,-999.0,-999.0,75,-99.99,,,-99.99,Homeseer,2013-07-31 23:03:00,
2013-07-31 19:08:00,72.0,65.5,29.90,North,-999,-999.0,-999.0,75,-99.99,,,-99.99,Homeseer,2013-07-31 23:08:00,
2013-07-31 19:13:00,71.9,65.7,29.90,North,-999,-999.0,-999.0,76,-99.99,,,-99.99,Homeseer,2013-07-31 23:13:00,
2013-07-31 19:18:00,71.6,65.4,29.90,North,-999,-999.0,-999.0,76,-99.99,,,-99.99,Homeseer,2013-07-31 23:18:00,
2013-07-31 19:23:00,71.3,65.1,29.89,North,-999,-999.0,-999.0,76,-99.99,,,-99.99,Homeseer,2013-07-31 23:23:00,
2013-07-31 19:28:00,71.2,65.3,29.90,North,-999,-999.0,-999.0,77,-99.99,,,-99.99,Homeseer,2013-07-31 23:28:00,
2013-07-31 19:33:00,71.0,65.4,29.90,North,-999,-999.0,-999.0,78,-99.99,,,-99.99,Homeseer,2013-07-31 23:33:00,
2013-07-31 19:38:00,70.4,64.8,29.90,North,-999,-999.0,-999.0,78,-99.99,,,-99.99,Homeseer,2013-07-31 23:38:00,
2013-07-31 19:43:00,70.1,64.8,29.90,North,-999,-999.0,-999.0,79,-99.99,,,-99.99,Homeseer,2013-07-31 23:43:00,
2013-07-31 19:48:00,69.7,64.7,29.90,North,-999,-999.0,-999.0,80,-99.99,,,-99.99,Homeseer,2013-07-31 23:48:00,
2013-07-31 19:53:00,69.5,64.5,29.90,North,-999,-999.0,-999.0,80,-99.99,,,-99.99,Homeseer,2013-07-31 23:53:00,
2013-07-31 19:58:00,69.2,64.7,29.90,North,-999,-999.0,-999.0,82,-99.99,,,-99.99,Homeseer,2013-07-31 23:58:00,
2013-07-31 20:03:00,69.0,64.6,29.90,North,-999,-999.0,-999.0,82,-99.99,,,-99.99,Homeseer,2013-08-01 00:03:00,
2013-07-31 20:08:00,68.8,64.4,29.90,North,-999,-999.0,-999.0,82,-99.99,,,-99.99,Homeseer,2013-08-01 00:08:00,
2013-07-31 20:13:00,68.7,64.5,29.90,North,-999,-999.0,-999.0,83,-99.99,,,-99.99,Homeseer,2013-08-01 00:13:00,
2013-07-31 20:18:00,68.6,64.7,29.90,North,-999,-999.0,-999.0,84,-99.99,,,-99.99,Homeseer,2013-08-01 00:18:00,
2013-07-31 20:23:00,68.4,64.8,29.91,North,-999,-999.0,-999.0,85,-99.99,,,-99.99,Homeseer,2013-08-01 00:23:00,
2013-07-31 20:28:00,68.4,64.5,29.91,North,-999,-999.0,-999.0,84,-99.99,,,-99.99,Homeseer,2013-08-01 00:28:00,
2013-07-31 20:33:00,68.3,64.7,29.91,North,-999,-999.0,-999.0,85,-99.99,,,-99.99,Homeseer,2013-08-01 00:33:00,
2013-07-31 20:38:00,68.3,64.4,29.90,North,-999,-999.0,-999.0,84,-99.99,,,-99.99,Homeseer,2013-08-01 00:38:00,
2013-07-31 20:43:00,68.0,64.4,29.91,North,-999,-999.0,-999.0,85,-99.99,,,-99.99,Homeseer,2013-08-01 00:43:00,
2013-07-31 20:48:00,68.0,64.6,29.91,North,-999,-999.0,-999.0,86,-99.99,,,-99.99,Homeseer,2013-08-01 00:48:00,
2013-07-31 20:53:00,67.9,64.5,29.90,North,-999,-999.0,-999.0,86,-99.99,,,-99.99,Homeseer,2013-08-01 00:53:00,
2013-07-31 20:58:00,67.8,64.4,29.91,North,-999,-999.0,-999.0,86,-99.99,,,-99.99,Homeseer,2013-08-01 00:58:00,
2013-07-31 21:03:00,67.7,64.3,29.91,North,-999,-999.0,-999.0,86,-99.99,,,-99.99,Homeseer,2013-08-01 01:03:00,
2013-07-31 21:08:00,67.5,64.1,29.91,North,-999,-999.0,-999.0,86,-99.99,,,-99.99,Homeseer,2013-08-01 01:08:00,
2013-07-31 21:13:00,67.4,64.0,29.91,North,-999,-999.0,-999.0,86,-99.99,,,-99.99,Homeseer,2013-08-01 01:13:00,
2013-07-31 21:18:00,67.4,64.3,29.91,North,-999,-999.0,-999.0,87,-99.99,,,-99.99,Homeseer,2013-08-01 01:18:00,
2013-07-31 21:23:00,67.1,64.3,29.91,North,-999,-999.0,-999.0,88,-99.99,,,-99.99,Homeseer,2013-08-01 01:23:00,
2013-07-31 21:28:00,67.0,64.2,29.91,North,-999,-999.0,-999.0,88,-99.99,,,-99.99,Homeseer,2013-08-01 01:28:00,
2013-07-31 21:33:00,66.8,64.0,29.91,North,-999,-999.0,-999.0,88,-99.99,,,-99.99,Homeseer,2013-08-01 01:33:00,
2013-07-31 21:38:00,66.7,64.1,29.91,North,-999,-999.0,-999.0,89,-99.99,,,-99.99,Homeseer,2013-08-01 01:38:00,
2013-07-31 21:43:00,66.6,64.0,29.91,North,-999,-999.0,-999.0,89,-99.99,,,-99.99,Homeseer,2013-08-01 01:43:00,
2013-07-31 21:48:00,66.5,63.9,29.91,North,-999,-999.0,-999.0,89,-99.99,,,-99.99,Homeseer,2013-08-01 01:48:00,
2013-07-31 21:53:00,66.5,63.9,29.91,North,-999,-999.0,-999.0,89,-99.99,,,-99.99,Homeseer,2013-08-01 01:53:00,
2013-07-31 21:58:00,66.2,63.6,29.91,North,-999,-999.0,-999.0,89,-99.99,,,-99.99,Homeseer,2013-08-01 01:58:00,
2013-07-31 22:03:00,66.1,63.5,29.91,North,-999,-999.0,-999.0,89,-99.99,,,-99.99,Homeseer,2013-08-01 02:03:00,
2013-07-31 22:08:00,66.0,63.4,29.91,North,-999,-999.0,-999.0,89,-99.99,,,-99.99,Homeseer,2013-08-01 02:08:00,
2013-07-31 22:13:00,65.8,63.2,29.91,North,-999,-999.0,-999.0,89,-99.99,,,-99.99,Homeseer,2013-08-01 02:13:00,
2013-07-31 22:18:00,65.6,63.3,29.91,North,-999,-999.0,-999.0,90,-99.99,,,-99.99,Homeseer,2013-08-01 02:18:00,
2013-07-31 22:23:00,65.0,62.7,29.91,North,-999,-999.0,-999.0,90,-99.99,,,-99.99,Homeseer,2013-08-01 02:23:00,
2013-07-31 22:28:00,64.9,62.6,29.90,North,-999,-999.0,-999.0,90,-99.99,,,-99.99,Homeseer,2013-08-01 02:28:00,
2013-07-31 22:33:00,64.8,62.7,29.91,North,-999,-999.0,-999.0,91,-99.99,,,-99.99,Homeseer,2013-08-01 02:33:00,
2013-07-31 22:38:00,64.6,62.5,29.90,North,-999,-999.0,-999.0,91,-99.99,,,-99.99,Homeseer,2013-08-01 02:38:00,
2013-07-31 22:43:00,64.6,62.8,29.90,North,-999,-999.0,-999.0,92,-99.99,,,-99.99,Homeseer,2013-08-01 02:43:00,
2013-07-31 22:48:00,64.6,62.8,29.91,North,-999,-999.0,-999.0,92,-99.99,,,-99.99,Homeseer,2013-08-01 02:48:00,
2013-07-31 22:53:00,64.4,62.6,29.91,North,-999,-999.0,-999.0,92,-99.99,,,-99.99,Homeseer,2013-08-01 02:53:00,
2013-07-31 22:58:00,64.4,62.6,29.91,North,-999,-999.0,-999.0,92,-99.99,,,-99.99,Homeseer,2013-08-01 02:58:00,
2013-07-31 23:03:00,64.4,62.6,29.91,North,-999,-999.0,-999.0,92,-99.99,,,-99.99,Homeseer,2013-08-01 03:03:00,
2013-07-31 23:08:00,64.4,62.6,29.91,North,-999,-999.0,-999.0,92,-99.99,,,-99.99,Homeseer,2013-08-01 03:08:00,
2013-07-31 23:13:00,64.4,62.6,29.90,North,-999,-999.0,-999.0,92,-99.99,,,-99.99,Homeseer,2013-08-01 03:13:00,
2013-07-31 23:18:00,64.4,62.6,29.91,North,-999,-999.0,-999.0,92,-99.99,,,-99.99,Homeseer,2013-08-01 03:18:00,
2013-07-31 23:23:00,64.3,62.5,29.90,North,-999,-999.0,-999.0,92,-99.99,,,-99.99,Homeseer,2013-08-01 03:23:00,
2013-07-31 23:28:00,64.3,62.5,29.90,North,-999,-999.0,-999.0,92,-99.99,,,-99.99,Homeseer,2013-08-01 03:28:00,
2013-07-31 23:33:00,64.1,62.3,29.91,North,-999,-999.0,-999.0,92,-99.99,,,-99.99,Homeseer,2013-08-01 03:33:00,
2013-07-31 23:38:00,64.1,62.3,29.91,North,-999,-999.0,-999.0,92,-99.99,,,-99.99,Homeseer,2013-08-01 03:38:00,
2013-07-31 23:43:00,64.0,62.2,29.91,North,-999,-999.0,-999.0,92,-99.99,,,-99.99,Homeseer,2013-08-01 03:43:00,
2013-07-31 23:49:00,63.9,61.8,29.91,North,-999,-999.0,-999.0,91,-99.99,,,-99.99,Homeseer,2013-08-01 03:49:00,
2013-07-31 23:54:00,63.6,61.8,29.91,North,-999,-999.0,-999.0,92,-99.99,,,-99.99,Homeseer,2013-08-01 03:54:00,
2013-07-31 23:59:00,63.4,61.3,29.91,North,-999,-999.0,-999.0,91,-99.99,,,-99.99,Homeseer,2013-08-01 03:59:00,